When you browse on this site, cookies collect data to enhance your experience and personalize the content and advertising you see.
Visit our Privacy Policy to learn more. By continuing to use the site, you agree to this use of cookies and data.
  • In Schweiz
  • Länderverzeichnis
  • Für 7 Tage
  • Wassertemperatur
  • Satellitenkarten
  • Wetterkarte
  • Widgets
  • user-avatar
    Anmelden

    Stündliche Wetter Bregenz

    Heute, 23 Mai, Donnerstag

    Zeit Temperatur Niederschläge Wind Luftdruck Luftfeuchtigkeit
    00:00 +4°C° 0 mm 1 m/S 647 mmHg 92%
    01:00 +3°C° 0 mm 1 m/S 647 mmHg 93%
    02:00 +3°C° 0 mm 1 m/S 647 mmHg 93%
    03:00 +3°C° 0 mm 1 m/S 647 mmHg 93%
    04:00 +2°C° 0 mm 1 m/S 647 mmHg 93%
    05:00 +4°C° 0 mm 1 m/S 647 mmHg 90%
    06:00 +5°C° 0 mm 1 m/S 647 mmHg 88%
    07:00 +5°C° 0 mm 0 m/S 647 mmHg 85%
    08:00 +9°C° 0 mm 1 m/S 648 mmHg 76%
    09:00 +11°C° 0 mm 1 m/S 648 mmHg 67%
    10:00 +13°C° 0 mm 1 m/S 649 mmHg 58%
    11:00 +14°C° 0 mm 1 m/S 649 mmHg 55%
    12:00 +15°C° 0 mm 2 m/S 649 mmHg 52%
    13:00 +16°C° 0 mm 2 m/S 649 mmHg 49%
    14:00 +15°C° 0 mm 2 m/S 648 mmHg 50%
    15:00 +15°C° 0 mm 2 m/S 648 mmHg 52%
    16:00 +15°C° 0 mm 2 m/S 648 mmHg 53%
    17:00 +14°C° 0 mm 2 m/S 647 mmHg 62%
    18:00 +13°C° 0 mm 2 m/S 647 mmHg 70%
    19:00 +11°C° 0 mm 1 m/S 647 mmHg 79%
    20:00 +10°C° 0 mm 1 m/S 646 mmHg 84%
    21:00 +8°C° 0 mm 1 m/S 646 mmHg 88%
    22:00 +6°C° 0 mm 1 m/S 646 mmHg 93%
    23:00 +6°C° 0 mm 1 m/S 646 mmHg 93%

    Morgen, 24 Mai, Freitag

    Zeit Temperatur Niederschläge Wind Luftdruck Luftfeuchtigkeit
    00:00 +6°C° 0 mm 1 m/S 646 mmHg 93%
    01:00 +5°C° 0 mm 1 m/S 645 mmHg 93%
    02:00 +5°C° 0 mm 1 m/S 645 mmHg 92%
    03:00 +5°C° 0 mm 1 m/S 645 mmHg 91%
    04:00 +4°C° 0 mm 1 m/S 645 mmHg 90%
    05:00 +6°C° 0 mm 1 m/S 645 mmHg 85%
    06:00 +8°C° 0 mm 1 m/S 645 mmHg 79%
    07:00 +8°C° 0 mm 0 m/S 646 mmHg 74%
    08:00 +11°C° 0 mm 1 m/S 646 mmHg 67%
    09:00 +13°C° 0 mm 1 m/S 647 mmHg 60%
    10:00 +15°C° 0 mm 1 m/S 647 mmHg 53%
    11:00 +15°C° 0 mm 2 m/S 647 mmHg 51%
    12:00 +16°C° 0 mm 2 m/S 647 mmHg 49%
    13:00 +17°C° 0 mm 2 m/S 647 mmHg 47%
    14:00 +17°C° 0 mm 2 m/S 646 mmHg 48%
    15:00 +16°C° 0 mm 2 m/S 646 mmHg 49%
    16:00 +16°C° 0 mm 2 m/S 646 mmHg 50%
    17:00 +15°C° 0 mm 2 m/S 645 mmHg 58%
    18:00 +14°C° 0 mm 2 m/S 645 mmHg 66%
    19:00 +12°C° 0 mm 1 m/S 645 mmHg 75%
    20:00 +11°C° 0 mm 1 m/S 645 mmHg 80%
    21:00 +9°C° 0 mm 1 m/S 644 mmHg 85%
    22:00 +8°C° 0 mm 1 m/S 644 mmHg 90%
    23:00 +7°C° 0 mm 1 m/S 644 mmHg 90%

    übermorgen, 25 Mai, Samstag

    Zeit Temperatur Niederschläge Wind Luftdruck Luftfeuchtigkeit
    00:00 +7°C° 0 mm 1 m/S 644 mmHg 90%
    01:00 +6°C° 0 mm 1 m/S 644 mmHg 91%
    02:00 +6°C° 0 mm 1 m/S 644 mmHg 91%
    03:00 +6°C° 0 mm 1 m/S 644 mmHg 91%
    04:00 +6°C° 0 mm 1 m/S 643 mmHg 92%
    05:00 +7°C° 0 mm 1 m/S 644 mmHg 87%
    06:00 +8°C° 0 mm 0 m/S 644 mmHg 81%
    07:00 +9°C° 0 mm 0 m/S 645 mmHg 76%
    08:00 +11°C° 0 mm 0 m/S 646 mmHg 71%
    09:00 +13°C° 0 mm 1 m/S 646 mmHg 66%
    10:00 +15°C° 0 mm 2 m/S 646 mmHg 61%
    11:00 +15°C° 0.1 mm 2 m/S 647 mmHg 60%
    12:00 +16°C° 0.1 mm 2 m/S 647 mmHg 59%
    13:00 +16°C° 0.1 mm 2 m/S 647 mmHg 58%
    14:00 +16°C° 0.3 mm 2 m/S 647 mmHg 63%
    15:00 +15°C° 0.3 mm 2 m/S 646 mmHg 68%
    16:00 +15°C° 0.3 mm 2 m/S 646 mmHg 74%
    17:00 +14°C° 0.2 mm 2 m/S 646 mmHg 79%
    18:00 +13°C° 0.2 mm 2 m/S 646 mmHg 85%
    19:00 +12°C° 0.2 mm 1 m/S 646 mmHg 90%
    20:00 +10°C° 0.1 mm 1 m/S 646 mmHg 92%
    21:00 +9°C° 0.1 mm 1 m/S 646 mmHg 94%
    22:00 +7°C° 0.1 mm 0 m/S 646 mmHg 96%
    23:00 +7°C° 0.1 mm 0 m/S 646 mmHg 96%

    26 Mai, Sonntag

    Zeit Temperatur Niederschläge Wind Luftdruck Luftfeuchtigkeit
    00:00 +8°C° 0.1 mm 1 m/S 646 mmHg 96%
    01:00 +7°C° 0.1 mm 1 m/S 646 mmHg 96%
    02:00 +7°C° 0 mm 1 m/S 645 mmHg 96%
    03:00 +6°C° 0 mm 0 m/S 645 mmHg 96%
    04:00 +6°C° 0 mm 0 m/S 645 mmHg 96%
    05:00 +7°C° 0 mm 0 m/S 646 mmHg 95%
    06:00 +8°C° 0 mm 0 m/S 646 mmHg 94%
    07:00 +8°C° 0 mm 0 m/S 646 mmHg 93%
    08:00 +9°C° 0.1 mm 0 m/S 646 mmHg 91%
    09:00 +9°C° 0.1 mm 0 m/S 647 mmHg 89%
    10:00 +11°C° 0.1 mm 1 m/S 647 mmHg 88%
    11:00 +12°C° 0.1 mm 1 m/S 647 mmHg 80%
    12:00 +14°C° 0.1 mm 1 m/S 647 mmHg 71%
    13:00 +15°C° 0.1 mm 2 m/S 647 mmHg 63%
    14:00 +15°C° 0.1 mm 2 m/S 647 mmHg 64%
    15:00 +15°C° 0.1 mm 2 m/S 647 mmHg 64%
    16:00 +15°C° 0.1 mm 2 m/S 647 mmHg 65%
    17:00 +14°C° 0.1 mm 2 m/S 647 mmHg 71%
    18:00 +13°C° 0.1 mm 1 m/S 646 mmHg 77%
    19:00 +12°C° 0.1 mm 1 m/S 646 mmHg 83%
    20:00 +11°C° 0.1 mm 1 m/S 646 mmHg 85%
    21:00 +10°C° 0.1 mm 1 m/S 646 mmHg 87%
    22:00 +9°C° 0.1 mm 1 m/S 646 mmHg 89%
    23:00 +8°C° 0 mm 1 m/S 645 mmHg 91%

    27 Mai, Montag

    Zeit Temperatur Niederschläge Wind Luftdruck Luftfeuchtigkeit
    00:00 +7°C° 0 mm 1 m/S 645 mmHg 92%
    01:00 +7°C° 0 mm 1 m/S 644 mmHg 94%
    02:00 +6°C° 0 mm 1 m/S 644 mmHg 94%
    03:00 +6°C° 0 mm 1 m/S 643 mmHg 94%
    04:00 +6°C° 0 mm 1 m/S 643 mmHg 94%
    05:00 +7°C° 0 mm 1 m/S 643 mmHg 91%
    06:00 +8°C° 0 mm 1 m/S 644 mmHg 88%
    07:00 +9°C° 0 mm 0 m/S 644 mmHg 85%
    08:00 +11°C° 0 mm 1 m/S 644 mmHg 80%
    09:00 +12°C° 0 mm 1 m/S 644 mmHg 76%
    10:00 +13°C° 0 mm 1 m/S 644 mmHg 71%
    11:00 +14°C° 0.1 mm 1 m/S 644 mmHg 68%
    12:00 +14°C° 0.1 mm 2 m/S 644 mmHg 65%
    13:00 +15°C° 0.1 mm 2 m/S 644 mmHg 62%
    14:00 +16°C° 0.1 mm 1 m/S 644 mmHg 60%
    15:00 +16°C° 0.1 mm 1 m/S 644 mmHg 58%
    16:00 +16°C° 0.1 mm 1 m/S 643 mmHg 56%
    17:00 +15°C° 0.3 mm 1 m/S 643 mmHg 66%
    18:00 +13°C° 0.3 mm 1 m/S 642 mmHg 76%
    19:00 +12°C° 0.3 mm 1 m/S 642 mmHg 86%
    20:00 +11°C° 0.8 mm 1 m/S 642 mmHg 89%
    21:00 +10°C° 0.8 mm 1 m/S 642 mmHg 92%
    22:00 +9°C° 0.8 mm 1 m/S 642 mmHg 96%
    23:00 +9°C° 1.6 mm 1 m/S 641 mmHg 96%

    28 Mai, Dienstag

    Zeit Temperatur Niederschläge Wind Luftdruck Luftfeuchtigkeit
    00:00 +9°C° 1.6 mm 1 m/S 641 mmHg 97%
    01:00 +8°C° 1.6 mm 1 m/S 641 mmHg 98%
    02:00 +8°C° 2.3 mm 1 m/S 641 mmHg 98%
    03:00 +8°C° 2.3 mm 1 m/S 641 mmHg 98%
    04:00 +8°C° 2.3 mm 1 m/S 640 mmHg 98%
    05:00 +7°C° 2.4 mm 1 m/S 640 mmHg 98%
    06:00 +7°C° 2.4 mm 1 m/S 640 mmHg 98%
    07:00 +6°C° 2.4 mm 1 m/S 640 mmHg 98%
    08:00 +6°C° 1.1 mm 1 m/S 640 mmHg 97%
    09:00 +6°C° 1.1 mm 1 m/S 641 mmHg 96%
    10:00 +6°C° 1.1 mm 1 m/S 641 mmHg 95%
    11:00 +6°C° 1.1 mm 1 m/S 641 mmHg 94%
    12:00 +5°C° 1.1 mm 2 m/S 641 mmHg 94%
    13:00 +5°C° 1.1 mm 2 m/S 641 mmHg 94%
    14:00 +6°C° 1 mm 1 m/S 641 mmHg 93%
    15:00 +6°C° 1 mm 1 m/S 641 mmHg 93%
    16:00 +6°C° 1 mm 1 m/S 641 mmHg 93%
    17:00 +6°C° 0.5 mm 1 m/S 641 mmHg 94%
    18:00 +6°C° 0.5 mm 1 m/S 641 mmHg 94%
    19:00 +6°C° 0.5 mm 1 m/S 641 mmHg 94%
    20:00 +5°C° 0.2 mm 1 m/S 642 mmHg 94%
    21:00 +5°C° 0.2 mm 1 m/S 642 mmHg 95%
    22:00 +4°C° 0.2 mm 1 m/S 642 mmHg 95%
    23:00 +4°C° 0 mm 1 m/S 642 mmHg 95%
    Mehr zeigen